Location: Newark
(45.4422°N, 16.2769°E)
Time: 11:38:55
(UTC+00:00)

Courier 1B - Pass Details

Date: 15 December 2019
Orbit: 962 x 1209 km, 28.3° (Epoch: 17 January)

Event Time Altitude Azimuth Distance (km) Brightness Sun altitude
Rises 17:25:17 0° 208° (SSW) 3,742 11.1 -22.4°
Reaches altitude 10° 17:30:09 10° 178° (S) 2,854 10.0 -23.2°
Maximum altitude 17:32:21 12° 159° (SSE) 2,763 9.7 -23.6°
Enters shadow 17:33:54 11° 146° (SE) 2,843 9.7 -23.8°
Drops below altitude 10° 17:34:36 10° 140° (SE) 2,916 - -24.0°
Sets 17:39:44 0° 111° (ESE) 3,945 - -24.9°
